Regional Weather Roundup
Issued by NWS

Home | Current Version | Previous Version | Graphics & Text | Print | Product List | Glossary On
Versions: 1 2 3 4 5 6 7 8 9 10 11 12 13 14 15 16 17 18 19 20 21 22 23 24 25 26 27 28 29 30 31 32 33 34 35 36 37 38 39 40 41 42 43 44 45 46 47 48 49 50
972
ASUS43 KMPX 211001
RWRMN
WEATHER ROUNDUP FOR MINNESOTA
NATIONAL WEATHER SERVICE TWIN CITIES/CHANHASSEN MN
400 AM CST TUE NOV 21 2017


NOTE: "FAIR" INDICATES FEW OR NO CLOUDS BELOW 12,000 FEET WITH NO
SIGNIFICANT WEATHER AND/OR OBSTRUCTIONS TO VISIBILITY. N/A MEANS
CURRENT SKY AND/OR WEATHER CONDITIONS ARE NOT AVAILABLE.

MNZ060>063-068>070-211100-
   Twin Cities Metro

CITY           SKY/WX    TMP DP  RH WIND       PRES   REMARKS
TWIN CITIES    MOCLDY    30  19  63 W20G30    29.68R WCI  17
ST PAUL        CLOUDY    31  20  63 W24G32    29.69R WCI  17
CRYSTAL        CLOUDY    30  15  53 NW30G44   29.68R WCI  15
BLAINE         CLOUDY    30  18  59 NW30G39   29.68R WCI  15
LAKEVILLE      PTCLDY    28  18  64 W21G31    29.68R WCI  15
EDEN PRAIRIE   CLOUDY    30  17  58 NW20G37   29.69R WCI  17
SOUTH ST PAUL  PTCLDY    31  19  58 W20G30    29.67R WCI  19
LAKE ELMO      FAIR      32  21  64 W20G31    29.66R WCI  20
$$
MNZ001>005-007-008-013>017-022>024-027-028-211100-
   Northwest Minnesota

CITY           SKY/WX    TMP DP  RH WIND       PRES   REMARKS
BEMIDJI        LGT SNOW  16  10  79 NW25G32   29.70R WCI  -3
HALLOCK        LGT SNOW  16  10  79 N31G38    29.89R WCI  -5
ROSEAU         FLURRIES  18  10  73 NW24G35   29.78R WCI   0
WARROAD        LGT SNOW  18  12  79 NW17G29   29.76R WCI   2
THIEF RVR FALL FLURRIES  14  10  85 NW31G40   29.82R WCI  -7
CROOKSTON      CLOUDY    16  10  79 N32G45    29.88R WCI  -5
FOSSTON        LGT SNOW  12   9  85 NW21G28   29.79R WCI  -6
DETROIT LAKES  FLURRIES  19  12  73 NW32G40   29.81R WCI   0
MOORHEAD       LGT RAIN  19   9  63 NW25G35   29.89R WCI   2
PARK RAPIDS    FLURRIES  18   9  68 NW22G30   29.71R WCI   1
MAHNOMEN       LGT SNOW  16   9  75 NW23G37   29.81R WCI  -3
$$
MNZ006-009>011-018-025>026-211100-
   North Central Minnesota

CITY           SKY/WX    TMP DP  RH WIND       PRES   REMARKS
BAUDETTE       FLURRIES  18  11  74 NW24G40   29.67R WCI   0
FLAG ISLAND    CLOUDY    16  10  79 N22G35    29.73R HAZE    WCI  -2
INTL FALLS     LGT SNOW  19  12  74 NW23G33   29.59R WCI   2
WASKISH        LGT SNOW  18  14  86 W17G25    29.68R WCI   2
BIG FORK       FLURRIES  19  10  68 W9G20     29.61R WCI   9
LONGVILLE      FLURRIES  19   9  63 W17G33    29.67R WCI   4
GRAND RAPIDS   FLURRIES  19  11  70 NW25G38   29.62R WCI   1
CRANE LAKE     LGT SNOW  19  16  86 NW9G16    29.53R WCI   9
ORR            LGT SNOW  19  12  73 W18       29.51R WCI   4
COOK           LGT SNOW  19  12  73 W21G29    29.54R WCI   3
WALKER         FLURRIES  16   9  71 NW21G26   29.69R WCI  -1
$$
MNZ012-019>021-037-211100-
   Northeast Minnesota

CITY           SKY/WX    TMP DP  RH WIND       PRES   REMARKS
DULUTH         FLURRIES  23  17  78 NW20      29.49R WCI   8
ELY            LGT SNOW  21  14  73 W18G31    29.46R WCI   6
HIBBING        FLURRIES  20  11  68 NW18G30   29.55R WCI   5
EVELETH        FLURRIES  19   9  63 NW23G29   29.55R WCI   2
DULUTH HARBOR  CLOUDY    28  16  59 W38G46    29.54R WCI  11
TWO HARBORS    FLURRIES  28  18  64 W16G31    29.44R WCI  17
SILVER BAY     MOCLDY    27  16  63 W10G25    29.43R WCI  17
GRAND MARAIS     N/A     30  19  63 W16G24    29.39R WCI  19
G MARAIS ARPRT FLURRIES  21  12  68 W17G35    29.30R WCI   7
$$
MNZ029>031-032-039>041-046>048-054>057-064-211100-
   West Central Minnesota

CITY           SKY/WX    TMP DP  RH WIND       PRES   REMARKS
FERGUS FALLS   CLOUDY    19  10  68 NW31G38   29.85R WCI   0
WHEATON        CLOUDY    21  10  63 NW26G40   29.90R WCI   4
MORRIS         CLOUDY    21  12  68 NW30G38   29.82R WCI   3
ALEXANDRIA     CLOUDY    23  15  71 NW25G33   29.76R WCI   7
ELBOW LAKE     CLOUDY    21  13  70 W36G44    29.82R WCI   2
WADENA         CLOUDY    19  10  68 NW26G33   29.73R WCI   1
GLENWOOD       FLURRIES  21  16  79 NW35G41   29.76R WCI   2
APPLETON       CLOUDY    21  10  63 NW30G37   29.85R WCI   3
BENSON           N/A     23  12  63 N29G39    29.82R WCI   6
ORTONVILLE     MOCLDY    19   9  63 MISG      29.88R
MADISON        CLOUDY    25  12  58 NW30G40   29.89R WCI   8
WILLMAR        FAIR      25  16  68 NW23G32   29.80R WCI  10
$$
MNZ033>034-036-042>043-049>051-058-059-211100-
   Central Minnesota

CITY           SKY/WX    TMP DP  RH WIND       PRES   REMARKS
ST CLOUD       CLOUDY    26  13  57 NW23G30   29.71R WCI  11
SAUK CENTRE    FLURRIES  23  17  75 W16G25    29.74R WCI  10
PAYNESVILLE    CLOUDY    25  18  73 W20G33    29.75R WCI  11
AITKIN         CLOUDY    21  10  63 W16G25    29.63R WCI   7
PINE RIVER     CLOUDY    19  10  68 NW13G29   29.71R WCI   7
BRAINERD       CLOUDY    24   9  52 NW25G39   29.67R WCI   8
STAPLES        CLOUDY    19   9  63 NW22G38   29.72R WCI   3
LONG PRAIRIE   CLOUDY    25  14  63 W23G29    29.72R WCI  10
LITTLE FALLS   FLURRIES  27   9  46 W15G30    29.71R WCI  15
LITCHFIELD     CLOUDY    28  18  64 NW18G35   29.75R WCI  16
BUFFALO        CLOUDY    27  13  56 W16G33    29.73R WCI  15
MAPLE LAKE     CLOUDY    28  16  61 NW23G30   29.73R WCI  13
HUTCHINSON     PTCLDY    27  17  65 W20G31    29.76R WCI  14
$$
MNZ037-044-045-052-053-211100-
   East Central Minnesota

CITY           SKY/WX    TMP DP  RH WIND       PRES   REMARKS
PRINCETON      MOCLDY    27  14  59 W21G31    29.69R WCI  13
MORA           CLOUDY    27  16  63 NW23G31   29.65R WCI  12
CAMBRIDGE      PTCLDY    27  14  59 W12G30    29.68R WCI  16
RUSH CITY      MOCLDY    27  16  65 W12G25    29.65R WCI  16
MOOSE LAKE     FLURRIES  27  16  63 NW14G24   29.58R WCI  15
HINCKLEY       CLOUDY    28  18  64 W18G30    29.62R WCI  16
CLOQUET        FLURRIES  25  16  68 W22G33    29.54R WCI  10
MCGREGOR       CLOUDY    25  14  63 NW20G29   29.62R WCI  11
$$
MNZ071>073-080-081-089-090-097-098-211100-
   Southwest Minnesota

CITY           SKY/WX    TMP DP  RH WIND       PRES   REMARKS
MONTEVIDEO     CLOUDY    25  10  54 N20G39    29.84R WCI  11
GRANITE FALLS  CLOUDY    28  16  60 NW31G39   29.86R WCI  12
CANBY          PTCLDY    26  12  55 W29G37    29.89R WCI  10
MARSHALL       PTCLDY    29  15  56 NW31G38   29.82R WCI  13
REDWOOD FALLS  CLOUDY    28  11  48 NW16G31   29.81R WCI  16
OLIVIA         MOCLDY    28  16  59 NW25G37   29.79R WCI  14
PIPESTONE      CLOUDY    34  12  40 NW17G30   29.83R WCI  23
WINDOM           N/A     36  16  44 NW25G31   29.78R
WORTHINGTON    CLOUDY    35  17  47 NW24G32   29.81R WCI  23
JACKSON        CLOUDY    36  14  41 NW17G26   29.78S
SLAYTON        CLOUDY    34  17  49 NW30G37   29.80R WCI  20
$$
MNZ065>067-074>077-082>085-091>093-211100-
   South Central Minnesota

CITY           SKY/WX    TMP DP  RH WIND       PRES   REMARKS
MANKATO        CLOUDY    30  16  56 NW28G36   29.76R WCI  15
NEW ULM        CLOUDY    28  12  50 NW24G36   29.79R WCI  14
ST JAMES       CLOUDY    32  16  51 NW18G24   29.79R WCI  20
FAIRMONT       CLOUDY    36  15  42 NW17G26   29.78R
GLENCOE        CLEAR     28  18  64 NW22G32   29.75R WCI  15
FARIBAULT      PTCLDY    30  14  51 W21G36    29.71R WCI  17
OWATONNA       CLOUDY    32  16  51 W22G31    29.72R WCI  19
WASECA         CLOUDY    32  18  55 W26G38    29.75R WCI  18
ALBERT LEA     CLOUDY    34   7  32 NW14G21   29.72R WCI  24
$$
MNZ078>079-086>088-094>096-211100-
   Southeast Minnesota

CITY           SKY/WX    TMP DP  RH WIND       PRES   REMARKS
ROCHESTER      CLOUDY    32  18  56 W20G32    29.66R WCI  20
RED WING       CLEAR     36  12  38 W20G28    29.64R
STANTON        PTCLDY    33  16  50 W23G29    29.67R WCI  20
DODGE CENTER   CLOUDY    32  16  51 W18G30    29.68R WCI  20
WINONA         CLEAR     37  21  52 W14G24    29.63R
AUSTIN         CLOUDY    36  10  35 NW23G37   29.69R
PRESTON        CLOUDY    34  17  50 NW24G33   29.66R WCI  21
$$
ABBREVIATIONS USED IN REMARKS
   TC - TEMPERATURES IN CELSIUS
  WCI - WIND CHILL INDEX
   HX - HEAT INDEX
  VSB - VISIBILITY
$$




USA.gov is the U.S. government's official web portal to all federal, state and local government web resources and services.